Location: Asheville, NC
(35.6000°N, 82.5500°W)
Time: 00:16:27
(UTC-04:00)

Vanguard 1 Rocket - Pass Details

Date: 14 February 2018
Orbit: 652 x 4225 km, 34.3° (Epoch: 20 May)

Event Time Altitude Azimuth Distance (km) Brightness Sun altitude
Rises 20:47:12 0° 185° (S) 6,221 11.6 -32.2°
Reaches altitude 10° 20:52:25 10° 171° (S) 5,767 11.3 -33.3°
Enters shadow 20:58:45 19° 150° (SSE) 5,575 11.0 -34.6°
Maximum altitude 21:05:45 23° 127° (SE) 5,793 - -36.0°
Drops below altitude 10° 21:22:26 10° 85° (E) 7,423 - -39.3°
Sets 21:30:24 0° 74° (ENE) 8,421 - -40.8°
